Wind_Speed
3 3 4 5 6 6 6 5 5 5 5 5 6 6 7 8 9 9 8 8 8 8 8 8 7 8 8 8 8 7 7 7 8 9 9 9 9 8 8 8 8 7 8
3 4 5 6 7 6 6 5 5 5 5 6 6 7 8 8 9 8 7 7 8 8 9 10 10 9 9 10 10 9 9 9 10 10 10 10 10 10 9 9 9 8 8
4 5 5 7 7 6 6 6 5 5 5 5 6 6 7 8 8 8 8 8 8 9 9 10 10 10 10 11 10 10 10 11 11 11 11 11 11 11 11 10 10 10 9
5 5 6 6 5 6 6 6 5 4 5 5 5 6 6 6 7 7 8 8 9 9 10 11 11 11 11 11 11 11 11 12 12 12 12 12 12 12 12 12 12 12 11
6 6 7 6 5 5 5 5 5 4 5 5 5 6 6 6 6 7 8 8 9 10 10 11 11 11 11 11 11 12 12 13 12 13 13 13 13 13 13 13 13 13 13
7 7 7 7 6 5 5 5 4 4 4 5 5 6 6 6 6 7 8 9 9 10 11 11 12 12 11 11 12 13 12 13 12 13 13 12 12 13 14 13 13 13 13
6 6 6 6 6 5 5 4 5 5 5 5 6 6 6 7 7 8 8 9 10 11 12 12 12 12 12 12 12 12 13 13 13 13 12 13 13 14 15 15 14 14 14
6 5 5 5 5 4 5 5 5 5 5 5 5 6 6 7 8 8 9 9 10 11 11 12 13 13 13 13 13 14 14 14 14 14 14 14 15 15 16 16 15 15 14
6 5 5 5 5 5 5 5 5 4 5 5 6 6 7 7 8 9 9 9 9 10 11 12 12 12 12 13 13 14 14 14 14 13 13 13 14 14 15 16 16 16 16
6 6 5 5 5 5 5 4 5 5 5 5 6 6 6 7 8 8 8 8 9 10 11 12 12 12 11 12 12 12 13 13 13 13 13 13 13 14 15 16 17 17 17
6 6 6 6 5 5 5 5 5 5 5 6 6 6 6 7 7 7 8 8 8 9 9 9 10 10 10 11 11 11 11 11 12 12 13 13 13 14 14 15 16 17 18
6 6 6 5 5 6 6 5 5 5 6 6 6 6 6 6 6 7 7 8 8 8 7 7 7 8 10 10 10 10 10 10 11 11 12 13 13 13 13 14 16 17 17
7 6 6 6 6 6 6 5 5 5 6 6 6 6 6 6 6 7 7 7 7 7 6 6 7 7 8 9 9 9 10 10 11 11 12 13 12 13 13 14 15 15 16
6 6 6 6 6 6 6 6 6 6 6 5 6 6 6 6 6 6 6 6 6 7 7 6 6 6 6 7 8 9 9 9 11 11 12 13 12 12 13 14 14 14 15
7 7 6 6 6 6 6 6 6 6 6 5 5 5 5 6 6 7 7 7 7 7 6 6 6 6 7 7 8 8 9 9 10 10 11 11 12 12 12 12 13 13 13
7 7 6 6 6 6 6 6 6 5 6 6 6 6 6 7 7 6 6 6 7 6 6 6 6 7 8 8 8 8 8 9 10 11 10 10 10 11 11 11 12 12 13
7 7 6 6 6 6 6 6 5 5 5 6 6 6 6 6 7 7 6 6 6 6 6 6 7 7 8 8 8 8 8 8 8 9 10 10 10 11 11 11 12 12 13
6 6 6 7 6 6 6 6 6 6 5 5 5 5 6 6 6 6 6 6 6 6 7 7 7 7 7 7 8 8 8 8 8 9 10 10 11 11 11 12 12 13 13
6 6 6 6 6 6 6 6 6 6 5 5 5 6 6 6 6 6 7 7 8 7 8 8 8 8 7 6 7 8 8 8 8 9 10 10 10 11 11 12 13 13 14
6 6 6 6 5 5 6 6 6 6 6 6 6 6 7 7 8 8 8 8 8 8 8 8 8 8 8 8 8 8 8 8 8 8 8 9 9 10 11 11 12 13 13
6 6 6 6 6 6 6 6 7 6 6 6 7 7 7 8 9 9 8 9 8 8 8 8 8 8 8 8 8 8 8 8 8 8 8 9 9 10 11 11 12 12 12
7 7 6 6 6 6 6 6 7 7 6 7 7 8 8 9 9 9 9 9 9 9 9 9 8 8 8 8 8 8 8 8 9 9 9 10 10 11 11 11 13 13 13
7 7 7 7 7 7 7 7 7 7 7 7 8 8 9 9 9 9 9 9 9 9 9 9 8 9 9 9 9 10 10 9 9 9 10 10 11 12 11 12 12 12 13
8 8 7 8 8 8 8 8 8 8 7 8 8 9 9 10 9 9 9 9 9 9 9 9 9 9 9 9 9 10 10 10 9 10 11 11 12 13 13 13 13 13 12
9 9 9 9 9 9 9 9 9 9 9 9 9 10 10 10 9 9 9 8 8 9 9 9 9 9 9 9 9 10 10 10 11 11 11 12 12 13 14 14 14 13 13
10 10 10 10 10 10 10 10 10 10 10 10 10 10 10 10 9 9 9 9 9 9 9 9 9 9 9 9 9 9 10 10 11 11 12 12 13 14 14 14 14 14 14
Wind_Direction
314 320 308 309 311 303 297 297 297 298 292 279 271 264 265 263 262 259 254 254 253 250 248 248 251 251 256 258 254 252 249 245 246 245 243 242 243 247 245 244 242 240 243
314 315 310 311 308 301 299 295 298 300 300 289 280 274 275 272 264 253 252 253 253 250 252 253 254 256 257 256 255 254 252 249 250 248 244 244 247 252 251 246 243 244 244
312 317 311 308 304 301 300 299 294 298 302 296 287 280 278 276 265 250 252 255 260 259 259 260 261 260 258 255 254 254 254 255 254 250 249 250 250 252 249 244 244 247 250
316 317 316 315 311 304 301 301 295 293 299 299 292 289 282 277 273 262 256 262 268 268 263 262 264 262 257 254 253 252 254 257 254 252 251 250 251 252 250 247 246 248 251
327 324 324 325 320 314 305 300 296 295 293 292 291 290 287 286 278 267 262 266 271 270 268 267 264 263 258 256 256 253 255 259 259 257 256 255 252 252 253 252 250 252 254
331 328 330 328 324 318 312 303 302 301 300 293 290 288 284 281 281 275 269 272 274 273 272 271 267 262 260 261 260 255 255 257 257 260 257 256 253 255 256 256 254 255 257
329 329 335 332 328 322 315 308 301 298 297 295 290 286 278 275 279 278 274 274 274 272 273 272 269 264 262 260 259 256 258 259 259 259 259 257 254 254 255 256 255 255 255
328 325 330 334 335 330 323 316 306 301 295 294 293 284 279 275 272 275 279 278 277 274 273 272 268 267 262 261 261 259 260 262 262 261 262 261 259 256 254 254 254 254 255
322 323 324 325 324 324 323 317 309 301 293 290 290 286 284 280 276 275 280 282 281 278 274 272 268 265 260 260 262 260 261 262 262 261 262 264 262 259 257 255 254 254 255
326 323 318 319 319 317 314 309 305 301 296 290 289 286 284 283 280 277 278 280 279 280 278 272 267 262 262 258 258 260 260 258 260 258 259 260 258 260 259 259 259 258 258
329 326 320 318 317 315 311 307 304 300 299 298 291 287 285 286 281 278 280 282 281 281 280 277 265 259 258 260 263 264 259 255 257 260 259 260 261 262 261 260 259 260 259
333 330 326 321 317 313 311 312 308 307 308 309 303 296 293 289 283 281 284 283 284 282 280 276 267 256 260 263 267 264 257 255 259 259 257 258 261 263 264 264 262 261 260
332 327 324 322 318 314 311 309 310 308 308 309 308 306 301 292 287 285 285 283 281 277 273 268 266 263 265 268 268 265 257 256 259 260 260 261 262 264 267 269 268 265 262
335 330 325 322 318 317 311 307 307 307 306 305 306 304 295 286 286 290 290 285 281 281 278 271 270 267 267 266 269 270 259 257 256 259 259 260 261 264 268 272 271 268 266
329 328 326 324 321 318 316 309 307 307 301 302 307 302 295 290 290 289 289 288 283 280 278 277 281 280 274 268 270 270 264 260 259 260 263 263 264 266 269 271 271 268 268
330 328 329 327 322 320 323 316 310 309 304 303 309 305 300 296 293 292 293 294 286 277 276 282 281 276 274 273 272 273 270 265 265 265 265 265 264 268 269 269 272 274 272
329 329 332 331 326 322 320 320 317 317 314 310 311 312 307 304 302 299 297 295 289 280 282 286 282 280 276 273 274 274 270 267 267 267 267 270 270 270 271 274 274 275 276
327 327 329 330 329 326 327 324 326 327 323 317 315 318 316 309 304 300 297 293 288 284 284 283 280 279 277 275 272 270 269 269 271 270 271 275 276 275 276 276 276 278 279
323 322 323 326 330 332 333 330 326 325 324 323 323 324 320 315 308 302 299 292 287 284 284 281 276 275 274 277 272 266 266 265 271 278 277 276 278 277 277 277 279 278 281
320 318 315 318 324 326 328 328 325 323 319 320 321 320 315 314 309 300 293 290 285 284 283 279 274 273 273 275 273 268 265 268 276 280 280 280 280 281 281 283 282 282 282
313 314 313 311 315 316 322 325 323 322 318 316 316 316 315 313 309 301 292 289 285 285 287 285 278 275 276 277 273 268 266 271 279 281 280 281 282 287 291 292 289 288 287
309 309 310 307 310 312 313 316 318 318 315 315 314 313 311 310 307 303 295 290 287 285 286 287 281 278 279 278 275 273 273 272 278 280 282 285 285 288 292 293 293 290 288
303 307 308 305 306 308 307 310 314 315 312 311 313 313 310 308 307 302 297 292 288 286 288 288 284 281 280 283 281 275 274 276 279 281 280 280 285 287 288 292 294 291 290
300 303 304 303 305 307 309 308 311 311 309 308 311 312 310 304 303 302 298 293 289 287 287 288 287 285 284 286 287 283 278 281 284 287 284 284 287 291 292 292 293 295 294
296 299 303 303 303 304 306 306 305 307 309 312 313 313 313 309 303 301 302 298 293 289 290 290 286 286 289 289 288 288 287 285 285 288 290 290 291 295 296 293 291 292 293
292 292 296 296 297 298 301 304 302 304 307 309 312 315 315 312 307 301 301 299 296 293 293 292 290 287 288 289 290 292 293 291 290 291 291 292 294 295 295 295 294 292 292
Height
5867 5866 5866 5866 5865 5865 5864 5864 5864 5864 5864 5864 5864 5864 5864 5865 5865 5865 5865 5866 5867 5867 5868 5869 5869 5870 5870 5870 5870 5870 5870 5870 5871 5872 5874 5875 5876 5877 5878 5878 5879 5879 5880
5866 5866 5865 5865 5864 5864 5863 5863 5863 5863 5863 5863 5863 5863 5863 5863 5863 5863 5864 5864 5865 5866 5866 5867 5868 5868 5868 5869 5869 5869 5870 5870 5871 5871 5872 5873 5875 5875 5876 5877 5877 5878 5879
5866 5865 5864 5864 5863 5862 5862 5862 5862 5862 5862 5861 5861 5861 5862 5862 5862 5861 5862 5863 5863 5864 5864 5865 5866 5866 5867 5867 5868 5868 5868 5869 5869 5870 5871 5872 5873 5873 5874 5875 5876 5876 5877
5865 5864 5864 5863 5862 5861 5861 5861 5861 5861 5861 5860 5860 5860 5860 5860 5860 5860 5861 5861 5862 5862 5863 5863 5864 5864 5865 5865 5866 5866 5867 5867 5868 5868 5869 5870 5871 5871 5872 5873 5874 5875 5875
5864 5863 5863 5862 5861 5860 5860 5859 5859 5860 5859 5859 5859 5859 5859 5859 5859 5859 5859 5860 5860 5860 5861 5861 5861 5862 5862 5863 5864 5864 5865 5865 5866 5866 5867 5868 5868 5869 5870 5871 5872 5872 5873
5863 5863 5862 5861 5860 5860 5859 5858 5858 5858 5858 5858 5858 5858 5858 5858 5858 5858 5858 5858 5858 5858 5859 5859 5859 5859 5860 5861 5861 5862 5862 5863 5864 5864 5865 5865 5866 5867 5867 5868 5869 5870 5870
5863 5862 5862 5861 5860 5859 5858 5858 5857 5857 5857 5857 5857 5857 5856 5856 5856 5856 5856 5856 5856 5857 5856 5856 5856 5857 5857 5858 5859 5860 5860 5861 5861 5862 5862 5863 5863 5864 5865 5865 5866 5867 5867
5862 5861 5861 5860 5859 5858 5857 5857 5856 5856 5856 5856 5855 5855 5855 5855 5855 5855 5854 5854 5854 5854 5854 5854 5854 5854 5855 5856 5857 5857 5858 5858 5859 5859 5860 5860 5861 5861 5862 5862 5863 5864 5864
5861 5860 5860 5859 5858 5857 5856 5856 5855 5855 5854 5854 5854 5854 5854 5853 5853 5853 5852 5852 5852 5852 5851 5851 5851 5851 5852 5852 5853 5854 5855 5855 5856 5857 5857 5858 5858 5858 5859 5859 5860 5861 5861
5861 5860 5859 5858 5857 5856 5856 5855 5854 5854 5853 5853 5853 5852 5852 5852 5851 5851 5851 5850 5850 5849 5848 5847 5847 5848 5849 5849 5850 5851 5852 5852 5853 5854 5854 5855 5855 5855 5856 5856 5857 5857 5858
5860 5859 5858 5857 5856 5855 5855 5854 5853 5853 5852 5852 5851 5851 5851 5850 5850 5849 5849 5849 5848 5847 5845 5843 5842 5844 5846 5847 5848 5848 5849 5849 5850 5851 5852 5852 5852 5852 5853 5853 5853 5854 5854
5859 5858 5857 5856 5855 5855 5854 5853 5852 5852 5851 5851 5850 5850 5849 5849 5848 5848 5847 5847 5846 5845 5843 5842 5841 5842 5844 5845 5845 5846 5846 5847 5848 5848 5849 5849 5849 5850 5850 5850 5850 5850 5851
5858 5857 5856 5855 5854 5854 5853 5852 5851 5851 5850 5850 5849 5848 5848 5847 5847 5846 5846 5846 5845 5844 5843 5842 5841 5842 5842 5843 5844 5844 5844 5845 5846 5846 5846 5847 5847 5847 5847 5847 5847 5847 5847
5858 5857 5856 5855 5854 5853 5852 5851 5850 5850 5849 5848 5848 5847 5846 5846 5845 5845 5844 5844 5843 5843 5842 5842 5841 5841 5841 5842 5842 5842 5842 5843 5843 5843 5844 5844 5844 5844 5844 5844 5844 5844 5843
5857 5856 5855 5854 5853 5852 5851 5850 5849 5849 5848 5847 5847 5846 5845 5845 5844 5843 5843 5843 5842 5841 5841 5841 5840 5840 5840 5840 5840 5840 5840 5841 5841 5841 5841 5841 5841 5841 5841 5841 5841 5840 5840
5856 5855 5854 5853 5852 5851 5850 5849 5848 5848 5847 5846 5845 5845 5844 5843 5843 5842 5841 5841 5841 5840 5840 5839 5839 5839 5838 5838 5838 5838 5838 5838 5838 5838 5839 5839 5839 5838 5838 5838 5838 5837 5837
5855 5854 5853 5852 5851 5850 5849 5849 5847 5847 5846 5845 5844 5843 5843 5842 5841 5841 5840 5840 5839 5839 5838 5838 5837 5837 5837 5836 5836 5836 5836 5836 5836 5836 5836 5836 5836 5836 5835 5835 5835 5834 5834
5854 5853 5852 5851 5850 5849 5848 5848 5847 5846 5845 5844 5843 5842 5842 5841 5840 5839 5839 5838 5838 5837 5836 5836 5835 5835 5835 5835 5834 5834 5834 5834 5834 5834 5834 5833 5833 5833 5833 5832 5832 5831 5830
5853 5852 5851 5850 5850 5849 5848 5847 5846 5845 5844 5843 5842 5841 5840 5839 5839 5838 5837 5837 5836 5836 5835 5834 5834 5833 5833 5832 5832 5832 5832 5832 5832 5832 5832 5831 5830 5830 5830 5829 5829 5828 5827
5852 5851 5850 5849 5849 5848 5847 5846 5845 5844 5843 5842 5841 5840 5839 5838 5837 5836 5835 5835 5834 5834 5833 5832 5832 5831 5831 5831 5830 5830 5830 5830 5830 5830 5829 5828 5828 5827 5827 5826 5826 5825 5824
5851 5850 5849 5848 5848 5847 5846 5845 5844 5843 5842 5841 5840 5838 5837 5836 5835 5834 5833 5833 5832 5832 5831 5830 5830 5829 5829 5828 5828 5828 5828 5828 5828 5827 5827 5826 5826 5825 5824 5823 5823 5822 5821
5850 5849 5848 5847 5846 5845 5844 5843 5842 5841 5840 5839 5838 5836 5835 5834 5833 5832 5831 5830 5830 5829 5829 5828 5828 5827 5827 5826 5826 5826 5826 5826 5825 5825 5824 5824 5823 5823 5822 5821 5820 5819 5818
5849 5848 5847 5846 5845 5844 5843 5842 5841 5840 5838 5837 5836 5835 5833 5832 5831 5830 5829 5828 5827 5827 5826 5826 5825 5825 5824 5824 5824 5824 5823 5823 5823 5823 5822 5821 5821 5820 5819 5818 5817 5816 5815
5847 5846 5845 5844 5843 5842 5841 5840 5839 5838 5837 5835 5834 5833 5831 5830 5829 5827 5826 5825 5825 5824 5824 5823 5823 5822 5822 5822 5821 5821 5821 5820 5820 5820 5820 5819 5818 5817 5816 5815 5814 5813 5811
5845 5844 5843 5842 5841 5840 5839 5838 5837 5836 5834 5833 5832 5830 5829 5828 5826 5825 5824 5823 5822 5822 5821 5821 5820 5820 5820 5819 5819 5818 5818 5818 5817 5817 5816 5816 5815 5814 5813 5812 5810 5809 5808
5843 5842 5841 5840 5839 5838 5837 5836 5834 5833 5832 5831 5830 5828 5827 5825 5824 5823 5822 5821 5820 5819 5819 5818 5818 5817 5817 5817 5816 5816 5816 5815 5815 5814 5813 5812 5812 5811 5810 5808 5807 5806 5804